SCP
-0 -0 0 0 0 0 0 0 0 0 0 0 0 0 0 0 0 0 0 1 1 1 0 0 0 0 0 0 0 0 0 0 0 0 0 0 0 0 0 0 0 0 0 0 0 0 0 0 0
-0 -0 0 0 0 0 0 0 0 0 0 0 0 0 0 0 0 0 0 1 1 0 0 0 0 0 0 0 0 0 0 0 0 0 0 0 0 0 0 0 0 0 0 0 0 0 0 0 0
0 0 0 0 0 0 0 0 0 0 0 0 0 0 0 0 0 0 0 0 0 0 0 0 0 0 0 0 0 0 0 0 0 0 0 0 0 0 0 0 0 0 0 0 0 0 0 0 0
0 0 0 0 0 0 0 0 0 0 0 0 0 0 0 0 0 0 0 0 0 0 0 0 0 0 0 0 0 0 0 0 0 0 0 0 0 0 0 0 0 0 0 0 0 0 0 0 0
0 0 0 0 0 0 0 0 0 0 0 0 0 0 0 0 0 0 0 0 0 0 0 0 0 0 0 0 0 0 0 0 0 0 0 0 0 0 0 0 0 0 0 0 0 0 0 0 0
0 0 0 0 0 0 0 0 0 0 0 0 0 0 0 0 0 0 0 0 0 0 0 0 0 0 0 0 0 0 0 0 0 0 0 0 0 0 0 0 0 0 0 0 0 0 0 0 0
0 0 0 0 0 0 0 0 0 0 0 0 0 0 0 0 0 0 0 0 0 0 0 0 0 0 0 0 0 0 0 0 0 0 0 0 0 0 0 0 0 0 0 0 0 0 0 0 0
0 0 0 0 0 0 0 0 0 0 0 0 0 0 0 0 0 0 0 0 0 0 0 0 0 0 0 0 0 0 0 0 0 0 0 0 0 0 0 0 0 0 0 0 0 0 0 0 0
0 0 0 0 0 0 0 0 0 0 0 0 0 0 0 0 0 0 0 0 0 0 0 0 0 0 0 0 0 0 0 0 0 0 0 0 0 0 0 0 0 0 0 0 0 0 0 0 0
0 0 0 0 0 0 0 0 0 0 0 0 0 0 0 0 0 0 0 0 0 0 0 0 0 0 0 0 0 0 0 0 0 0 0 0 0 0 0 0 0 0 0 0 0 0 0 0 0
0 0 0 0 0 0 0 0 0 0 0 0 0 0 0 0 0 0 0 0 0 0 0 1 1 0 0 1 0 0 0 0 0 0 0 0 0 0 0 0 0 0 0 0 0 0 0 0 0
0 0 0 0 0 0 0 0 0 0 0 0 0 0 0 0 0 0 0 1 1 1 0 1 1 1 1 1 1 0 0 0 0 0 0 0 0 0 0 0 0 0 0 0 0 0 0 0 0
0 0 0 0 0 0 0 0 0 0 0 0 0 0 0 0 0 0 1 1 1 1 1 1 1 2 2 1 1 1 1 1 1 1 0 0 0 0 0 0 0 0 0 0 0 0 0 0 0
0 0 0 0 0 0 0 0 0 0 0 0 0 0 0 1 1 1 1 1 1 2 2 2 2 3 3 2 1 1 1 1 1 1 1 1 1 1 1 1 1 1 1 1 1 1 1 1 1
0 0 0 0 0 0 0 0 0 0 0 0 0 0 0 1 1 1 1 2 2 3 3 3 3 3 3 2 2 2 2 2 2 2 1 1 1 1 1 1 1 1 1 1 1 1 1 1 1
0 0 0 0 0 0 0 0 0 0 0 0 0 0 0 1 1 1 2 3 4 4 5 5 4 4 4 3 3 3 3 3 3 2 2 1 1 1 1 1 1 1 1 1 1 1 1 1 1
0 0 0 0 0 0 0 0 0 0 0 0 0 0 0 1 1 2 3 4 6 7 8 7 6 6 5 5 5 5 4 4 3 3 2 1 1 1 1 1 1 1 1 1 1 1 1 1 1
0 0 0 0 0 0 0 0 0 0 0 0 0 0 0 1 1 2 4 6 8 10 11 11 10 8 7 6 6 6 5 4 4 3 2 2 1 1 1 1 1 1 1 1 0 0 0 0 0
0 0 0 0 0 0 0 0 0 0 0 0 0 0 0 1 2 4 7 10 12 14 15 14 13 11 9 8 7 6 5 4 3 2 2 1 1 1 0 0 0 0 0 0 0 0 0 0 0
0 0 0 0 0 0 0 0 0 0 0 0 0 0 0 1 3 7 10 13 15 17 17 16 14 12 10 8 7 6 4 3 2 1 1 1 0 0 0 0 0 0 0 0 0 0 0 0 0
0 0 0 0 0 0 0 0 0 0 0 0 0 0 0 1 4 8 12 15 17 18 18 16 14 11 9 7 6 4 3 2 1 1 1 0 0 0 0 0 0 0 0 0 0 0 0 0 0
0 0 0 0 0 0 0 0 0 0 0 0 0 0 0 1 3 8 13 16 17 17 15 13 11 9 7 5 4 3 2 1 1 1 0 0 0 0 0 0 0 0 0 0 0 0 0 0 0
0 0 0 0 0 0 0 0 0 0 0 0 0 0 0 1 3 8 12 14 14 12 11 9 7 6 4 3 3 2 2 1 1 0 0 0 0 0 0 0 0 0 0 0 0 0 0 0 0
0 0 0 0 0 0 0 0 0 0 0 0 0 0 0 1 4 8 10 10 9 8 6 5 4 3 2 2 2 1 1 1 1 0 0 0 0 0 0 0 0 0 0 0 0 0 0 0 0
0 0 -0 0 0 0 0 0 0 0 0 0 0 0 1 3 5 8 8 7 5 4 3 2 2 1 1 1 1 1 1 0 0 0 0 0 0 0 0 0 0 0 0 0 0 0 0 0 0
0 0 0 0 0 0 0 0 0 0 0 0 0 0 1 3 5 6 5 4 3 2 1 1 1 0 0 0 0 0 0 0 0 0 0 0 0 0 0 0 0 0 0 0 0 0 0 0 0
0 0 0 0 0 0 0 0 0 0 0 0 0 0 1 3 3 4 3 2 1 1 1 0 0 0 0 0 0 0 0 0 0 0 0 0 0 0 0 0 0 0 0 0 0 0 0 0 0
0 0 0 0 0 0 0 0 0 0 0 0 0 0 1 2 3 3 2 1 1 0 0 0 0 0 0 0 0 0 0 0 0 0 0 0 0 0 0 0 0 0 0 0 0 0 0 0 0
0 0 0 0 0 0 0 0 0 0 0 0 0 1 1 3 3 2 2 1 0 0 0 0 0 0 0 0 0 0 0 0 0 0 0 0 0 0 0 0 0 0 0 0 0 0 0 0 0
0 0 0 0 0 0 0 0 0 0 0 0 0 1 2 3 3 2 1 1 0 0 0 0 0 0 0 0 0 0 0 0 0 0 0 0 0 0 0 0 0 0 0 0 0 0 0 0 0
Wind_Speed
7 10 10 8 9 10 16 14 3 8 12 10 9 9 17 17 11 11 10 17 22 18 16 16 15 14 14 13 13 13 13 13 13 12 11 11 10 9 8 8 8 9 9 10 10 9 8 7 6
9 11 9 8 10 13 14 9 7 15 12 3 6 10 15 16 14 13 12 17 21 18 15 15 16 14 14 13 13 13 13 13 12 12 11 10 9 8 8 8 8 8 9 9 9 8 7 6 4
12 13 8 9 14 15 13 3 13 14 11 7 9 12 14 11 12 11 14 17 18 16 15 16 16 14 13 13 12 12 12 12 11 11 10 9 9 8 7 7 8 8 8 8 8 7 6 5 3
8 9 8 11 17 18 10 1 10 11 8 9 10 12 13 10 11 15 16 16 17 17 16 16 16 14 13 12 11 11 11 10 10 10 9 8 8 7 7 7 8 7 7 7 7 6 6 4 3
9 8 12 15 18 13 5 4 7 8 7 8 12 16 13 14 18 18 16 16 15 17 16 16 15 14 13 12 11 10 10 9 9 8 8 7 7 6 6 7 7 7 7 7 7 6 5 4 2
9 9 12 15 17 10 6 6 8 7 5 5 11 17 14 16 16 16 16 14 15 18 17 15 15 15 13 12 11 10 9 8 8 8 7 7 6 6 6 7 7 7 7 7 7 6 5 3 1
11 11 15 17 13 7 6 8 8 10 7 6 9 15 13 15 16 16 16 14 15 19 17 14 14 13 13 12 11 10 9 9 8 8 7 7 7 7 7 7 7 7 7 6 6 5 4 3 2
11 11 17 17 13 8 9 10 9 9 9 8 7 10 15 17 16 16 15 14 15 17 17 15 14 13 12 11 12 12 11 10 9 9 8 8 8 7 8 8 7 7 6 6 6 5 5 5 5
15 13 16 18 11 5 9 11 11 10 10 9 6 10 20 22 19 16 14 14 14 15 15 16 16 14 13 13 12 12 11 10 10 9 9 8 6 7 7 8 9 8 7 7 7 7 7 7 8
14 14 20 15 6 1 7 10 12 9 9 8 9 16 20 20 18 17 15 15 15 14 15 15 16 14 14 12 10 9 9 9 9 7 8 6 4 4 7 9 10 9 9 8 9 9 9 8 6
18 19 19 15 8 4 5 5 8 10 11 10 10 14 18 17 17 17 16 15 15 13 12 16 15 11 13 10 9 7 6 7 8 8 7 4 4 5 6 5 6 6 8 7 7 8 7 6 2
19 19 19 15 8 6 9 9 8 12 9 7 11 9 10 16 17 17 17 16 15 14 12 14 14 9 9 10 7 6 6 5 3 5 4 3 2 1 2 3 5 5 4 5 4 4 5 1 2
19 19 18 14 11 9 12 13 13 11 9 12 17 16 18 18 16 15 16 16 16 14 11 12 13 8 6 5 5 5 5 5 5 5 2 2 1 1 1 1 2 2 1 1 1 2 3 3 3
18 18 18 17 15 14 14 14 16 15 10 12 18 20 20 19 19 16 14 15 16 15 12 12 13 10 7 4 2 4 5 4 5 4 4 2 2 3 2 2 1 2 3 4 3 4 4 3 3
18 17 16 16 17 16 16 17 18 17 14 11 13 18 21 20 19 17 15 13 15 15 12 12 13 11 9 7 5 4 5 5 5 4 4 3 3 3 1 1 2 3 2 2 2 4 3 3 3
17 17 18 17 17 18 19 18 17 16 16 12 12 13 15 16 19 18 17 12 13 15 13 13 13 14 10 7 5 4 5 5 5 5 4 4 3 3 1 2 4 3 3 2 2 2 3 4 4
17 17 18 20 21 22 21 19 17 14 13 11 11 11 12 13 15 15 17 16 14 13 13 11 11 14 12 9 5 5 5 5 5 5 5 4 4 3 2 4 4 3 2 3 4 5 4 4 5
16 18 20 22 21 23 22 18 15 10 8 11 12 12 11 11 12 14 17 18 16 14 13 11 10 12 10 8 6 5 6 5 5 5 5 6 4 5 4 3 4 4 3 4 4 3 3 3 3
20 21 18 17 19 21 21 18 16 13 12 13 13 12 12 12 9 11 14 17 16 14 13 12 11 11 9 7 7 6 6 5 5 5 6 6 6 5 4 4 3 3 3 3 3 3 4 3 3
21 21 20 16 14 13 13 14 13 13 14 12 13 13 12 9 7 9 14 14 14 13 13 11 10 11 9 6 4 4 6 5 5 5 5 6 6 4 4 4 2 3 2 0 0 1 2 4 3
18 17 17 16 16 16 15 16 15 15 19 18 15 15 15 11 7 10 15 16 15 15 13 11 10 10 7 7 6 6 5 5 4 5 4 4 5 5 5 4 4 3 2 2 2 2 2 3 4
14 14 15 16 15 15 17 16 16 17 20 22 20 19 18 15 11 11 14 15 14 12 11 10 10 9 7 7 7 8 6 6 5 5 5 4 4 4 4 4 3 2 3 2 3 5 3 3 4
13 13 14 15 15 16 17 17 16 16 19 18 18 20 18 15 13 13 15 15 13 12 11 10 10 9 8 6 6 6 5 5 5 6 6 5 4 3 4 4 3 1 1 3 3 2 3 3 3
11 12 13 12 12 17 17 19 19 17 19 17 16 13 11 11 9 14 16 15 14 12 11 10 10 8 7 6 5 4 6 7 7 6 5 3 4 4 4 5 3 0 2 2 1 1 3 2 2
13 11 9 11 13 16 18 19 18 18 18 14 8 2 2 4 10 17 17 15 13 13 12 11 10 8 6 6 5 6 7 6 6 4 4 1 2 4 5 4 2 1 1 1 2 2 3 2 3
14 15 12 12 12 12 11 11 9 6 3 2 3 3 4 9 12 16 16 14 12 12 12 11 11 9 7 7 6 6 5 4 4 3 2 2 2 6 5 3 2 0 1 3 2 3 4 3 2
16 15 16 15 16 16 14 16 14 8 6 7 8 6 5 9 13 16 15 13 12 12 11 11 11 9 8 7 7 5 4 5 6 3 1 3 3 3 4 2 1 1 1 2 3 3 4 4 4
18 15 10 12 13 15 15 15 11 9 8 4 2 2 4 9 14 16 14 13 12 12 11 10 9 9 8 7 5 5 5 5 3 2 4 5 3 3 1 1 1 2 3 3 4 4 5 5 5
15 16 14 12 12 13 13 9 4 7 8 7 5 4 3 11 15 16 13 13 13 13 12 10 9 8 7 5 5 5 4 3 2 3 4 3 2 1 1 2 2 3 4 4 5 5 6 6 6
14 16 15 12 13 13 13 11 7 8 11 12 11 11 7 11 15 15 15 15 14 13 11 10 8 7 6 5 5 4 3 3 2 3 3 2 1 1 3 3 4 5 5 5 5 6 6 6 6
Wind_Direction
232 255 255 270 256 250 260 266 251 78 64 54 58 59 65 54 62 95 118 106 108 115 122 121 119 118 115 113 114 116 115 116 115 115 113 111 108 105 101 97 95 96 98 100 100 99 98 96 93
254 253 259 254 262 260 263 259 93 86 89 118 82 72 77 74 84 107 115 109 114 121 132 126 127 125 122 120 118 119 120 119 118 116 115 113 111 108 106 105 103 103 105 107 106 105 104 102 98
258 261 264 252 248 261 281 307 110 115 145 149 91 70 64 87 101 112 119 120 119 124 125 129 135 132 129 126 123 123 123 121 120 118 115 112 109 107 108 108 108 109 109 110 110 108 105 101 92
241 231 237 248 253 249 251 247 113 125 136 109 102 85 79 79 105 121 131 128 125 128 128 136 139 137 133 130 128 127 124 122 121 119 116 112 108 106 107 109 109 108 108 106 106 104 99 92 78
234 246 237 252 254 255 209 163 129 125 130 120 106 97 92 92 108 126 136 135 137 132 130 139 140 139 138 136 135 133 130 127 124 122 119 116 113 110 108 110 110 109 107 106 107 106 102 96 82
226 235 242 247 252 238 177 150 127 124 123 123 115 111 109 115 125 140 140 146 140 131 129 137 142 144 145 144 143 141 137 134 131 129 127 124 122 118 115 113 111 110 110 112 114 116 116 114 100
245 252 258 263 270 226 167 155 151 148 155 173 136 116 124 136 141 147 148 152 140 130 132 144 147 150 151 151 150 146 141 139 138 138 140 142 141 137 131 124 120 120 120 122 127 133 142 155 195
245 267 273 272 262 229 167 163 158 161 165 178 164 130 139 141 150 149 153 149 140 137 141 149 151 153 157 157 155 150 148 148 150 154 161 164 163 159 149 141 133 137 139 143 150 162 179 198 219
238 253 264 268 253 215 174 168 163 179 165 189 151 123 138 144 153 151 154 150 145 142 147 153 152 158 162 158 153 154 157 161 164 172 182 184 189 172 165 149 150 158 163 167 176 191 204 214 225
230 243 251 271 300 186 205 184 173 182 172 193 126 111 130 148 156 159 161 158 152 152 159 152 151 162 164 152 151 166 173 172 189 182 184 197 192 168 155 153 167 176 181 183 200 211 219 224 223
230 243 265 290 303 324 277 223 196 200 198 188 136 130 144 158 165 167 166 165 158 159 165 149 153 164 156 144 167 171 174 168 196 176 177 174 176 160 157 163 172 191 193 199 204 216 226 225 216
238 248 261 281 304 310 291 281 241 228 215 164 116 129 175 175 178 175 170 167 160 164 169 151 145 160 149 150 164 157 154 169 165 136 172 159 175 174 156 174 182 197 195 196 195 222 215 203 325
237 249 263 272 281 278 274 276 271 252 209 151 142 162 202 192 187 183 174 166 162 164 167 148 144 136 112 113 151 158 142 152 132 139 159 123 161 141 109 63 48 327 62 128 313 326 28 20 323
246 243 251 261 263 262 264 266 264 258 229 174 162 170 204 192 190 184 179 169 165 161 162 143 141 129 119 123 157 125 124 116 128 126 123 103 68 81 59 76 58 351 24 38 356 350 3 344 333
257 260 255 250 253 256 259 257 252 249 236 202 184 185 193 192 191 183 180 175 162 155 153 142 144 141 146 158 176 144 134 139 121 108 106 95 79 87 47 102 101 37 14 28 354 356 336 318 327
245 245 252 251 247 247 249 254 254 241 233 215 208 206 194 193 194 184 173 164 158 157 151 152 158 153 159 163 176 153 147 133 121 122 113 102 88 79 30 55 66 19 357 17 20 2 353 1 352
246 237 241 244 237 235 236 245 258 257 225 219 227 227 211 202 198 182 169 161 158 153 151 157 154 154 163 158 153 122 110 117 120 116 113 104 89 77 56 75 61 1 9 32 16 39 12 353 346
234 234 234 241 241 230 230 233 245 251 226 232 236 235 227 218 198 178 170 163 156 152 151 154 149 152 155 148 140 130 123 115 104 101 102 102 91 69 43 89 69 22 25 44 38 13 355 323 299
253 260 259 250 240 240 228 231 240 242 220 230 244 244 234 224 207 170 160 152 150 150 153 155 155 152 152 153 157 149 143 129 114 106 102 94 84 76 60 60 78 55 49 44 21 17 333 311 308
243 258 269 277 277 270 252 235 237 255 257 236 235 247 253 233 188 150 139 146 149 152 154 154 151 151 157 153 147 139 130 119 108 103 101 104 100 93 98 74 50 59 36 290 34 2 312 309 329
240 248 261 270 279 279 275 259 246 255 266 263 243 236 246 247 198 158 150 154 155 156 159 156 150 150 153 140 126 118 105 110 116 122 112 108 110 99 77 77 57 37 339 53 7 339 330 326 322
244 247 258 267 270 269 267 266 251 244 246 247 245 236 232 238 210 173 156 152 150 148 143 138 134 135 132 130 142 149 154 155 153 140 127 121 109 110 105 90 76 43 347 28 357 45 349 330 306
246 253 252 253 257 264 267 270 267 261 259 248 246 237 224 230 214 177 158 145 136 133 130 128 124 124 128 140 155 163 150 134 122 116 128 137 127 124 117 107 83 47 15 57 19 1 341 322 333
243 250 257 262 262 257 253 257 262 258 260 257 254 238 211 219 196 151 137 130 129 126 123 124 124 126 133 140 145 145 127 123 125 130 142 162 151 152 132 119 100 47 49 49 344 333 295 321 350
222 234 238 236 234 246 246 245 253 254 257 263 275 269 163 125 126 126 130 131 131 130 129 129 128 126 125 122 115 112 114 118 126 134 144 179 155 135 111 102 101 50 57 275 271 290 291 290 289
219 225 239 256 262 268 275 265 270 285 285 338 2 30 87 112 120 127 129 130 133 135 134 134 132 128 122 114 109 106 117 129 119 84 102 131 58 92 118 119 136 212 293 307 348 313 291 276 261
240 229 235 253 269 279 282 292 298 288 249 215 221 225 185 141 131 129 132 134 138 140 138 138 133 125 119 114 107 103 89 84 96 97 37 85 72 111 112 117 161 246 288 299 299 278 283 278 263
227 247 250 249 261 271 279 282 294 328 325 306 231 228 127 124 126 127 132 136 135 133 127 123 122 120 116 114 121 115 96 95 108 117 80 72 74 64 69 263 258 266 266 263 261 271 270 269 264
214 226 243 260 265 268 272 276 348 16 11 12 5 9 112 128 130 131 133 129 124 122 123 124 122 120 120 117 103 102 106 116 131 113 111 103 87 81 266 273 284 279 268 260 255 261 270 271 273
239 241 232 238 250 261 273 282 329 27 33 25 13 18 60 115 126 129 128 126 126 128 130 129 126 120 114 108 102 104 105 101 92 94 85 93 92 316 310 309 296 288 286 283 280 284 294 303 308